Location: Waco, TX
(31.5480°N, 97.1670°W)
Time: 01:20:26
(UTC-06:00)

ISS - Pass Details

Date: 10 November 2017
Orbit: 402 x 407 km, 51.6° (Epoch: 22 November)

Event Time Altitude Azimuth Distance (km) Brightness Sun altitude
Rises 08:20:16 0° 325° (NW) 2,313 -0.6 15.9°
Reaches altitude 10° 08:22:31 10° 337° (NNW) 1,452 -1.4 16.3°
Maximum altitude 08:25:24 28° 39° (NE) 777 -2.2 16.8°
Drops below altitude 10° 08:28:16 10° 102° (ESE) 1,448 0.5 17.4°
Sets 08:30:31 0° 114° (ESE) 2,305 1.6 17.8°
